Location: Franzen
(48.6167°N, 15.3833°E)
Time: 09:55:28
(UTC+00:00)

Cosmos 2154 Rocket - Pass Details

Date: 22 April 2021
Orbit: 967 x 996 km, 82.9° (Epoch: 16 May)

Event Time Altitude Azimuth Distance (km) Brightness Sun altitude
Rises 22:54:51 0° 351° (N) 3,727 8.2 -28.9°
Reaches altitude 10° 22:57:24 10° 352° (N) 2,774 7.3 -28.9°
Maximum altitude 23:03:48 82° 81° (E) 1,011 3.9 -28.8°
Enters shadow 23:04:11 78° 132° (SE) 1,022 3.9 -28.8°
